Tracking 29528 objects as of 13-Sep-2024
HD Live streaming from Space Station
objects crossing your sky now

FENGYUN 1C DEB

Track FENGYUN 1C DEB now!
10-day predictions


NORAD ID: 30648
Int'l Code: 1999-025APF
Perigee: 746.3 km
Apogee: 803.2 km
Inclination: 98.7 °
Period: 100.2 minutes
Semi major axis: 7145 km
RCS: 0.034 m2 (small)
Launch date: May 10, 1999
Source: People's Republic of China (PRC)
Launch site: Taiyaun Space Center, China (TSC)

Note: This is SATELLITE DEBRIS
Your satellite tracking list
Your tracking list is empty




NASA's NSSDC Master Catalog

Two Line Element Set (TLE):
1 30648U 99025APF 24256.70182073  .00054993  00000-0  18155-1 0  9994
2 30648  98.6547 338.4593 0039825  54.7569  97.8713 14.37257508913291
Source of the keplerian elements: AFSPC